Imperial, NE

11:13 PM MST on January 16, 2017 (GMT -0700)
Imperial Municipal

Weather History for KIML - June, 2012

Change the Weather History Date:

Friday, June 29, 2012

  Actual Average Record
Temperature  
Mean Temperature 82 °F 74 °F  
Max Temperature 101 °F 89 °F 108 °F (1916)
Min Temperature 63 °F 59 °F 43 °F (1908)
Degree Days  
Heating Degree Days 0 0  
Month to date heating degree days 2 34  
Since 1 June heating degree days 2 34  
Cooling Degree Days 17 9  
Month to date cooling degree days 353 175  
Year to date cooling degree days 430 219  
Since 1 June cooling degree days 353 175  
Growing Degree Days 32 (Base 50)    
Moisture  
Dew Point 57 °F    
Average Humidity 52    
Maximum Humidity 84    
Minimum Humidity 19    
Precipitation  
Precipitation 0.00 in 0.09 in 1.63 in (1946)
Sea Level Pressure  
Sea Level Pressure 29.81 in    
Wind  
Wind Speed 5 mph (SE)    
Max Wind Speed 13 mph    
Max Gust Speed 16 mph    
Visibility 10 miles    
Events      
T = Trace of Precipitation, MM = Missing Value Source: NWS Daily Summary

Daily Weather History Graph

Daily Weather History Graph

Search for Another Location

Airport or City:

Trip Planner

Search our weather history database for the weather conditions in past years. The results will help you decide how hot, cold, wet, or windy it might be!

Date:

Astronomy

Jun. 29, 2012 Rise Set
Actual Time 5:19 AM MDT 8:21 PM MDT
Civil Twilight 4:45 AM MDT 8:54 PM MDT
Nautical Twilight 4:03 AM MDT 9:36 PM MDT
Astronomical Twilight 3:14 AM MDT 10:25 PM MDT
Moon 4:08 PM MDT (6/29) 1:31 AM MDT (6/29)
Length of Visible Light 16h 08m
Length of Day
15h 02m
Waxing Gibbous, 78% of the Moon is Illuminated
Jun 29
Waxing Gibbous
Jul 3
Full
Jul 10
Last Quarter
Jul 18
New
Jul 26
First Quarter

Hourly Weather History & Observations

Time (MDT) Temp. Heat Index Dew Point Humidity Pressure Visibility Wind Dir Wind Speed Gust Speed Precip Events Conditions
12:53 AM 71.1 °F - 57.9 °F 63% 29.87 in 10.0 mi SSE 11.5 mph - N/A   Clear
1:53 AM 66.9 °F - 59.0 °F 76% 29.87 in 10.0 mi South 3.5 mph - N/A   Clear
2:53 AM 64.9 °F - 59.0 °F 81% 29.86 in 10.0 mi NNW 3.5 mph - N/A   Clear
3:53 AM 64.0 °F - 57.9 °F 80% 29.84 in 10.0 mi West 3.5 mph - N/A   Clear
4:53 AM 64.0 °F - 57.9 °F 80% 29.84 in 10.0 mi West 6.9 mph - N/A   Clear
5:53 AM 64.0 °F - 59.0 °F 84% 29.84 in 10.0 mi WNW 5.8 mph - N/A   Clear
6:53 AM 68.0 °F - 60.1 °F 76% 29.85 in 10.0 mi Calm Calm - N/A   Clear
7:53 AM 72.0 °F - 61.0 °F 68% 29.84 in 10.0 mi South 3.5 mph - N/A   Clear
8:53 AM 75.9 °F - 64.0 °F 67% 29.88 in 10.0 mi North 6.9 mph - N/A   Clear
9:53 AM 82.0 °F 82.1 °F 59.0 °F 45% 29.85 in 10.0 mi East 5.8 mph - N/A   Clear
10:53 AM 84.9 °F 84.8 °F 60.1 °F 43% 29.85 in 10.0 mi SE 5.8 mph - N/A   Clear
11:53 AM 90.0 °F 89.1 °F 59.0 °F 35% 29.83 in 10.0 mi SE 5.8 mph - N/A   Clear
12:53 PM 95.0 °F 94.8 °F 60.1 °F 31% 29.81 in 10.0 mi ESE 6.9 mph - N/A   Clear
1:53 PM 97.0 °F 96.1 °F 57.9 °F 27% 29.79 in 10.0 mi ENE 6.9 mph - N/A   Clear
2:53 PM 99.0 °F - 51.1 °F 20% 29.78 in 10.0 mi East 5.8 mph - N/A   Clear
3:53 PM 100.0 °F - 50.0 °F 18% 29.76 in 10.0 mi SSE 8.1 mph - N/A   Clear
4:53 PM 100.0 °F - 51.1 °F 19% 29.73 in 10.0 mi SE 11.5 mph - N/A   Clear
5:53 PM 97.0 °F 94.6 °F 53.1 °F 23% 29.72 in 10.0 mi ESE 11.5 mph - N/A   Clear
6:53 PM 91.0 °F 89.7 °F 57.0 °F 32% 29.73 in 10.0 mi ESE 6.9 mph - N/A   Clear
7:53 PM 84.9 °F 84.2 °F 57.9 °F 40% 29.75 in 10.0 mi Calm Calm - N/A   Clear
8:53 PM 84.0 °F 83.0 °F 55.9 °F 38% 29.76 in 10.0 mi Calm Calm - N/A   Clear
9:53 PM 80.1 °F 80.2 °F 55.9 °F 43% 29.79 in 10.0 mi West 4.6 mph - N/A   Clear
10:53 PM 86.0 °F - 52.0 °F 31% 29.78 in 10.0 mi WNW 5.8 mph - N/A   Clear
11:53 PM 79.0 °F - 54.0 °F 42% 29.75 in 10.0 mi South 4.6 mph - N/A   Clear